• Join FlightAware (Why Join?)
  • Login
  • US Flag 
12:21PM EST


 

Airport Tracker/Info


-or-


 

Live Flight TrackerFlight Track Log ✈ UAL1208 ✈ 07-May-2013 ✈ KSFO - KBWI

Flight Track Log - Related Links

Times and Time Zones

All times are in EDT time to prevent confusion due to time zone crossing. See the UAL1208 flight status page for this flight to view local times or setup timezone preferences in your user account.

Time Position Orientation Groundspeed Altitude Reporting Facility
EDT Latitude Longitude Course Direction KTS MPH feet Rate Location/Type
07:22PM 37.6667 -122.3333 63° Northeast 203 234 1,700  Level Northern Cal TRACON
07:23PM 37.7000 -122.2667 58° Northeast 227 261 4,800 2,864 Climbing Northern Cal TRACON
07:24PM 37.7203 -122.2525 29° Northeast 222 255 5,900 2,360 Climbing Oakland Center
07:25PM 37.6411 -122.2857 72° East  Level FlightAware Approximate
07:25PM 37.7544 -122.1747 61° Northeast 262 302 8,300  Level Oakland Center
07:26PM 37.6878 -122.1411 58° Northeast  Level FlightAware Approximate
07:26PM 37.7803 -122.0819 71° East 278 320 10,700  Level Oakland Center
07:27PM 37.7347 -121.9959 67° East  Level FlightAware Approximate
07:27PM 37.8164 -121.9467 71° East 337 388 13,100  Level Oakland Center
07:28PM 37.7785 -121.8538 63° Northeast  Level FlightAware Approximate
07:28PM 37.8500 -121.8261 71° East 360 414 15,900  Level Oakland Center
07:29PM 37.8833 -121.7053 71° East 366 421 18,400 2,508 Climbing Oakland Center
07:30PM 37.9178 -121.5828 70° East 370 426 21,000 2,262 Climbing Oakland Center
07:31PM 37.9522 -121.4539 71° East 375 432 23,000 1,951 Climbing Oakland Center
07:32PM 37.9878 -121.3244 71° East 388 447 25,000 1,902 Climbing Oakland Center
07:33PM 38.0222 -121.1956 71° East 389 448 26,900 1,770 Climbing Oakland Center
07:34PM 38.0581 -121.0653 71° East 393 452 28,600 1,475 Climbing Oakland Center
07:35PM 38.0928 -120.9331 72° East 396 456 29,900 1,415 Climbing Oakland Center
07:36PM 38.1306 -120.7703 74° East 402 463 31,500 1,317 Climbing Oakland Center
07:37PM 38.1639 -120.6342 73° East 405 466 32,600 787 Climbing Oakland Center
07:38PM 38.1897 -120.4933 77° East 410 472 33,100 541 Climbing Oakland Center
07:39PM 38.2158 -120.3433 77° East 425 489 33,700 634 Climbing Oakland Center
07:40PM 38.2422 -120.1914 77° East 437 503 34,400 634 Climbing Oakland Center
07:41PM 38.2706 -120.0364 77° East 446 513 35,000 295 Climbing Oakland Center
07:42PM 38.2967 -119.8808 78° East 450 518 35,000  Level Oakland Center
07:43PM 38.3211 -119.7303 78° East 442 509 35,000  Level Oakland Center
07:44PM 38.3475 -119.5794 77° East 437 503 35,000  Level Oakland Center
07:45PM 38.3736 -119.4158 78° East 437 503 35,000  Level Oakland Center
07:46PM 38.3986 -119.2636 78° East 441 507 35,000  Level Oakland Center
07:47PM 38.4239 -119.1147 78° East 435 501 35,000  Level Oakland Center
07:48PM 38.4536 -118.9289 78° East 443 510 35,000  Level Oakland Center
07:49PM 38.4772 -118.7753 79° East 444 511 35,000  Level Oakland Center
07:50PM 38.5017 -118.6269 78° East 436 502 35,000  Level Oakland Center
07:51PM 38.5258 -118.4781 78° East 433 498 35,000  Level Oakland Center
07:52PM 38.5489 -118.3275 79° East 433 498 35,000  Level Oakland Center
07:53PM 38.5717 -118.1781 79° East 431 496 35,000  Level Oakland Center
07:54PM 38.5961 -118.0228 79° East 429 494 35,000  Level Oakland Center
07:55PM 38.6186 -117.8736 79° East 427 491 35,000  Level Oakland Center
07:56PM 38.6317 -117.7850 79° East 424 488 35,000  Level Salt Lake Center
07:56PM 38.6417 -117.7244 78° East 425 489 35,000  Level Oakland Center
07:57PM 38.6636 -117.5747 79° East 427 491 35,000  Level Oakland Center
07:59PM 38.6858 -117.4247 79° East 427 491 35,000  Level Oakland Center
07:59PM 38.6986 -117.3350 80° East 426 490 35,000  Level Salt Lake Center
08:00PM 38.7244 -117.1525 80° East 431 496 35,000  Level Salt Lake Center
08:01PM 38.7294 -117.1219 78° East 431 496 35,000  Level Oakland Center
08:02PM 38.7511 -116.9731 79° East 426 490 35,000  Level Oakland Center
08:02PM 38.7675 -116.8525 80° East 426 490 35,000  Level Salt Lake Center
08:03PM 38.7883 -116.7022 80° East 427 491 35,000  Level Salt Lake Center
08:04PM 38.8103 -116.5531 79° East 426 490 35,000  Level Salt Lake Center
08:05PM 38.8183 -116.4928 80° East 426 490 35,000  Level Oakland Center
08:06PM 38.8394 -116.3417 80° East 428 493 35,000  Level Oakland Center
08:06PM 38.8522 -116.2506 80° East 431 496 35,000  Level Salt Lake Center
08:07PM 38.8711 -116.0978 81° East 433 498 35,000  Level Salt Lake Center
08:08PM 38.8931 -115.9464 79° East 433 498 35,000  Level Salt Lake Center
08:09PM 38.9167 -115.7644 80° East 430 495 35,000  Level Salt Lake Center
08:10PM 38.9339 -115.6128 82° East 430 495 35,000  Level Salt Lake Center
08:11PM 38.9375 -115.4589 88° East 429 494 35,000  Level Salt Lake Center
08:13PM 38.9428 -115.3117 87° East 431 496 35,000  Level Salt Lake Center
08:14PM 38.9464 -115.1583 88° East 431 496 35,000  Level Salt Lake Center
08:15PM 38.9503 -115.0050 88° East 430 495 35,000  Level Salt Lake Center
08:16PM 38.9553 -114.8531 88° East 429 494 35,000  Level Salt Lake Center
08:17PM 38.9803 -114.6714 80° East 430 495 35,000  Level Salt Lake Center
08:18PM 39.0042 -114.5233 78° East 427 491 35,000  Level Salt Lake Center
08:19PM 39.0264 -114.3753 79° East 423 487 35,000  Level Salt Lake Center
08:20PM 39.0492 -114.2264 79° East 424 488 35,000  Level Salt Lake Center
08:21PM 39.0722 -114.0772 79° East 425 489 35,000  Level Salt Lake Center
08:22PM 39.0953 -113.9278 79° East 427 491 35,000  Level Salt Lake Center
08:23PM 39.1178 -113.7781 79° East 426 490 35,000  Level Salt Lake Center
08:24PM 39.1408 -113.6300 79° East 423 487 35,000  Level Salt Lake Center
08:25PM 39.1672 -113.4489 79° East 428 493 35,000  Level Salt Lake Center
08:26PM 39.1894 -113.2983 79° East 429 494 35,000  Level Salt Lake Center
08:27PM 39.2117 -113.1458 79° East 431 496 35,000  Level Salt Lake Center
08:28PM 39.2331 -112.9944 80° East 430 495 35,000  Level Salt Lake Center
08:29PM 39.2547 -112.8414 80° East 432 497 35,000  Level Salt Lake Center
08:30PM 39.2764 -112.6869 80° East 435 501 35,000  Level Salt Lake Center
08:31PM 39.3017 -112.5189 79° East 434 499 35,000  Level Salt Lake Center
08:32PM 39.3297 -112.3669 77° East 437 503 35,000  Level Salt Lake Center
08:33PM 39.3586 -112.2147 76° East 438 504 35,000  Level Salt Lake Center
08:34PM 39.3864 -112.0617 77° East 440 506 35,000  Level Salt Lake Center
08:35PM 39.4139 -111.9097 77° East 437 503 35,000  Level Salt Lake Center
08:36PM 39.4414 -111.7586 77° East 436 502 35,000  Level Salt Lake Center
08:37PM 39.4744 -111.5800 76° East 429 494 35,000  Level Salt Lake Center
08:38PM 39.5006 -111.4294 77° East 431 496 35,000  Level Salt Lake Center
08:39PM 39.5269 -111.2831 77° East 423 487 35,000  Level Salt Lake Center
08:40PM 39.5550 -111.1231 77° East 427 491 35,000  Level Salt Lake Center
08:41PM 39.5797 -110.9800 77° East 427 491 35,000  Level Salt Lake Center
08:42PM 39.6078 -110.8147 78° East 423 487 35,000  Level Salt Lake Center
08:43PM 39.6333 -110.6744 77° East 418 481 35,000  Level Salt Lake Center
08:44PM 39.6575 -110.5328 77° East 421 484 35,000  Level Salt Lake Center
08:45PM 39.6850 -110.3653 78° East 425 489 35,000 145 Level Salt Lake Center
08:46PM 39.7086 -110.2192 78° East 431 496 35,300 585 Climbing Salt Lake Center
08:47PM 39.7389 -110.0453 77° East 441 507 36,200 634 Climbing Salt Lake Center
08:48PM 39.7636 -109.8947 78° East 444 511 36,600 390 Climbing Salt Lake Center
08:49PM 39.7917 -109.7153 78° East 452 520 37,000 233 Climbing Salt Lake Center
08:50PM 39.8078 -109.6131 78° East 449 517 37,000  Level Denver Center
08:51PM 39.8319 -109.4622 78° East 446 513 37,000  Level Denver Center
08:52PM 39.8600 -109.2867 78° East 444 511 37,000  Level Denver Center
08:53PM 39.8683 -109.2381 77° East 443 510 37,000  Level Salt Lake Center
08:53PM 39.8839 -109.1364 79° East 442 509 37,000  Level Denver Center
08:54PM 39.8922 -109.0872 78° East 442 509 37,000  Level Salt Lake Center
08:55PM 39.9161 -108.9356 78° East 443 510 37,000  Level Salt Lake Center
08:55PM 39.9353 -108.8086 79° East 440 506 37,000  Level Denver Center
08:56PM 39.9586 -108.6569 79° East 441 507 37,000  Level Denver Center
08:57PM 39.9778 -108.5303 79° East 443 510 37,000  Level Denver Center
08:58PM 40.0072 -108.3294 79° East 441 507 37,000  Level Denver Center
08:59PM 40.0297 -108.1775 79° East 445 512 37,000  Level Denver Center
09:00PM 40.0561 -108.0006 79° East 443 510 37,000  Level Denver Center
09:01PM 40.0831 -107.8503 77° East 444 511 37,000  Level Denver Center
09:02PM 40.1189 -107.7006 73° East 449 517 37,000  Level Denver Center
09:03PM 40.1592 -107.5272 73° East 447 514 37,000  Level Denver Center
09:05PM 40.1939 -107.3789 73° East 447 514 37,000  Level Denver Center
09:06PM 40.2322 -107.2042 74° East 447 514 37,000  Level Denver Center
09:07PM 40.2661 -107.0547 73° East 448 516 37,000  Level Denver Center
09:08PM 40.3047 -106.8800 74° East 447 514 37,000  Level Denver Center
09:09PM 40.3475 -106.6950 73° East 446 513 37,000  Level Denver Center
09:10PM 40.3817 -106.5397 74° East 443 510 37,000  Level Denver Center
09:11PM 40.4144 -106.3850 74° East 442 509 37,000  Level Denver Center
09:12PM 40.4469 -106.2339 74° East 448 516 37,000  Level Denver Center
09:13PM 40.4875 -106.0489 74° East 448 516 37,000  Level Denver Center
09:14PM 40.5200 -105.8906 75° East 446 513 37,000  Level Denver Center
09:15PM 40.5542 -105.7325 74° East 444 511 37,000  Level Denver Center
09:16PM 40.5872 -105.5753 74° East 444 511 37,000  Level Denver Center
09:17PM 40.6256 -105.3881 75° East 445 512 37,000  Level Denver Center
09:18PM 40.6583 -105.2286 75° East 446 513 37,000  Level Denver Center
09:19PM 40.6922 -105.0697 74° East 446 513 37,000  Level Denver Center
09:20PM 40.7242 -104.9108 75° East 445 512 37,000  Level Denver Center
09:21PM 40.7561 -104.7506 75° East 445 512 37,000  Level Denver Center
09:22PM 40.7881 -104.5922 75° East 444 511 37,000  Level Denver Center
09:23PM 40.8200 -104.4328 75° East 446 513 37,000  Level Denver Center
09:24PM 40.8569 -104.2450 75° East 449 517 37,000  Level Denver Center
09:25PM 40.8881 -104.0825 76° East 450 518 37,000  Level Denver Center
09:26PM 40.9200 -103.9192 75° East 453 521 37,000  Level Denver Center
09:27PM 40.9522 -103.7550 75° East 457 526 37,000  Level Denver Center
09:29PM 40.9836 -103.5894 76° East 459 528 37,000  Level Denver Center
09:30PM 41.0119 -103.4342 76° East 462 532 37,000  Level Denver Center
09:31PM 41.0467 -103.2517 76° East 460 529 37,000  Level Denver Center
09:32PM 41.0747 -103.0950 77° East 458 527 37,000  Level Denver Center
09:33PM 41.1028 -102.9150 78° East 452 520 37,000  Level Denver Center
09:34PM 41.1122 -102.7828 85° East 452 520 37,000  Level Denver Center
09:35PM 41.1269 -102.5956 84° East 456 525 37,000  Level Denver Center
09:36PM 41.1411 -102.4094 84° East 455 524 37,000  Level Denver Center
09:37PM 41.1544 -102.2514 84° East 452 520 37,000  Level Denver Center
09:38PM 41.1700 -102.0400 84° East 451 519 37,000  Level Denver Center
09:39PM 41.1797 -101.9094 84° East 448 516 37,000  Level Denver Center
09:40PM 41.1922 -101.6981 85° East 451 519 37,000  Level Denver Center
09:41PM 41.2036 -101.5392 85° East 452 520 37,000  Level Denver Center
09:42PM 41.2164 -101.3544 85° East 450 518 37,000  Level Denver Center
09:43PM 41.2267 -101.1972 85° East 445 512 37,000  Level Denver Center
09:44PM 41.2372 -101.0394 85° East 445 512 37,000  Level Denver Center
09:45PM 41.2481 -100.8550 85° East 446 513 37,000  Level Denver Center
09:46PM 41.2569 -100.7228 85° East 447 514 37,000  Level Denver Center
09:47PM 41.2692 -100.5111 86° East 447 514 37,000  Level Denver Center
09:48PM 41.2772 -100.3781 85° East 449 517 37,000  Level Denver Center
09:49PM 41.2878 -100.1917 86° East 452 520 37,000  Level Denver Center
09:50PM 41.2986 -100.0036 86° East 454 522 37,000  Level Denver Center
09:51PM 41.3067 -99.8422 86° East 455 524 37,000  Level Denver Center
09:52PM 41.3169 -99.6539 86° East 457 526 37,000  Level Denver Center
09:53PM 41.3242 -99.5200 86° East 456 525 37,000  Level Denver Center
09:54PM 41.3322 -99.3381 87° East 458 527 37,000  Level Denver Center
09:55PM 41.3417 -99.1344 86° East 458 527 37,000  Level Denver Center
09:56PM 41.3497 -98.9631 86° East 458 527 37,000  Level Denver Center
09:57PM 41.3578 -98.7894 86° East 462 532 37,000  Level Denver Center
09:58PM 41.3656 -98.6158 87° East 463 533 37,000  Level Denver Center
10:00PM 41.3725 -98.4422 87° East 465 535 37,000  Level Denver Center
10:00PM 41.3775 -98.3042 87° East 467 537 37,000  Level Minneapolis Center
10:01PM 41.3831 -98.1311 87° East 466 536 37,000  Level Minneapolis Center
10:02PM 41.3886 -97.9328 88° East 465 535 37,000  Level Minneapolis Center
10:03PM 41.3942 -97.7611 87° East 463 533 37,000  Level Minneapolis Center
10:04PM 41.3989 -97.5903 88° East 463 533 37,000  Level Minneapolis Center
10:05PM 41.4033 -97.4189 88° East 463 533 37,000  Level Minneapolis Center
10:07PM 41.4072 -97.2481 88° East 462 532 37,000  Level Minneapolis Center
10:08PM 41.4108 -97.0761 88° East 464 534 37,000  Level Minneapolis Center
10:09PM 41.4142 -96.9042 88° East 464 534 37,000  Level Minneapolis Center
10:10PM 41.4186 -96.7344 88° East 461 531 37,000  Level Minneapolis Center
10:11PM 41.4222 -96.5633 88° East 461 531 37,000  Level Minneapolis Center
10:12PM 41.4247 -96.3917 89° East 463 533 37,000  Level Minneapolis Center
10:13PM 41.4275 -96.2089 89° East 465 535 37,000  Level Minneapolis Center
10:14PM 41.4294 -96.0389 89° East 462 532 37,000  Level Minneapolis Center
10:15PM 41.4325 -95.8672 89° East 462 532 37,000  Level Minneapolis Center
10:16PM 41.4331 -95.6964 90° East 462 532 37,000  Level Minneapolis Center
10:17PM 41.4350 -95.5231 89° East 459 528 37,000  Level Minneapolis Center
10:18PM 41.4367 -95.3539 89° East 457 526 37,000  Level Minneapolis Center
10:19PM 41.4389 -95.1861 89° East 455 524 37,000  Level Minneapolis Center
10:20PM 41.4394 -94.9844 90° East 455 524 37,000  Level Minneapolis Center
10:21PM 41.4397 -94.8503 90° East 453 521 37,000  Level Minneapolis Center
10:22PM 41.4406 -94.6519 90° East 447 514 37,000  Level Minneapolis Center
10:23PM 41.4389 -94.4850 91° East 449 517 37,000  Level Minneapolis Center
10:24PM 41.4386 -94.3189 90° East 449 517 37,000  Level Minneapolis Center
10:25PM 41.4389 -94.1719 90° East 450 518 37,000  Level Minneapolis Center
10:26PM 41.4369 -93.9756 91° East 446 513 37,000  Level Minneapolis Center
10:27PM 41.4372 -93.8108 90° East 447 514 37,000  Level Minneapolis Center
10:28PM 41.4369 -93.6486 90° East 444 511 37,000  Level Minneapolis Center
10:29PM 41.4442 -93.4856 87° East 443 510 37,000  Level Minneapolis Center
10:30PM 41.4528 -93.3228 86° East 444 511 37,000  Level Minneapolis Center
10:31PM 41.4603 -93.1628 86° East 439 505 37,000  Level Minneapolis Center
10:32PM 41.4675 -93.0031 86° East 436 502 37,000  Level Minneapolis Center
10:33PM 41.4744 -92.8422 87° East 437 503 37,000  Level Minneapolis Center
10:34PM 41.4806 -92.6819 87° East 436 502 37,000  Level Minneapolis Center
10:35PM 41.4894 -92.4869 86° East 439 505 37,000  Level Minneapolis Center
10:36PM 41.4953 -92.3228 87° East 442 509 37,000  Level Minneapolis Center
10:37PM 41.5008 -92.1592 87° East 445 512 37,000  Level Minneapolis Center
10:38PM 41.5067 -91.9922 87° East 449 517 37,000  Level Minneapolis Center
10:39PM 41.5125 -91.8281 87° East 449 517 37,000  Level Minneapolis Center
10:40PM 41.5169 -91.6725 88° East 449 517 37,000  Level Minneapolis Center
10:41PM 41.4939 -91.4681 98° East 446 513 37,000  Level Chicago Center
10:42PM 41.4681 -91.3111 102° East 441 507 37,000  Level Chicago Center
10:43PM 41.4425 -91.1656 103° East 440 506 37,000  Level Chicago Center
10:44PM 41.4158 -91.0069 103° East 438 504 37,000  Level Chicago Center
10:45PM 41.3828 -90.8189 103° East 435 501 37,000  Level Chicago Center
10:46PM 41.3561 -90.6642 103° East 430 495 37,000  Level Chicago Center
10:47PM 41.3278 -90.5103 104° East 428 493 37,000  Level Chicago Center
10:48PM 41.3003 -90.3536 103° East 432 497 37,000  Level Chicago Center
10:49PM 41.2719 -90.1986 104° East 431 496 37,000  Level Chicago Center
10:50PM 41.2436 -90.0419 103° East 434 499 37,000  Level Chicago Center
10:51PM 41.2147 -89.8858 104° East 434 499 37,000  Level Chicago Center
10:52PM 41.1861 -89.7294 104° East 432 497 37,000  Level Chicago Center
10:54PM 41.1608 -89.5725 102° East 432 497 37,000  Level Chicago Center
10:55PM 41.1625 -89.4108 89° East 437 503 37,000  Level Chicago Center
10:56PM 41.1647 -89.2514 89° East 433 498 37,000  Level Chicago Center
10:57PM 41.1656 -89.0903 90° East 429 494 37,000  Level Chicago Center
10:58PM 41.1653 -88.9322 90° East 431 496 37,000  Level Chicago Center
10:59PM 41.1669 -88.7428 89° East 432 497 37,000  Level Chicago Center
11:00PM 41.1675 -88.5847 90° East 433 498 37,000  Level Chicago Center
11:01PM 41.1692 -88.4267 89° East 431 496 37,000  Level Chicago Center
11:02PM 41.1694 -88.2714 90° East 427 491 37,000  Level Chicago Center
11:03PM 41.1703 -88.1169 90° East 426 490 37,000  Level Chicago Center
11:04PM 41.1692 -87.9642 91° East 424 488 37,000  Level Chicago Center
11:05PM 41.1694 -87.7825 90° East 418 481 37,000  Level Chicago Center
11:06PM 41.1694 -87.6294 90° East 419 482 37,000  Level Chicago Center
11:07PM 41.1697 -87.4744 90° East 424 488 37,000  Level Chicago Center
11:08PM 41.1681 -87.3219 91° East 418 481 37,000  Level Chicago Center
11:09PM 41.1672 -87.1661 90° East 424 488 37,000  Level Chicago Center
11:10PM 41.1656 -87.0103 91° East 424 488 37,000  Level Chicago Center
11:11PM 41.1447 -86.8586 100° East 421 484 37,000  Level Chicago Center
11:12PM 41.1094 -86.7000 106° East 419 482 37,000  Level Chicago Center
11:13PM 41.0783 -86.5511 105° East 421 484 37,000  Level Chicago Center
11:14PM 41.0469 -86.4053 106° East 416 479 37,000  Level Chicago Center
11:15PM 41.0156 -86.2589 106° East 415 478 37,000  Level Chicago Center
11:16PM 40.9844 -86.1158 106° East 408 470 37,000  Level Chicago Center
11:17PM 40.9533 -85.9731 106° East 407 468 37,000  Level Chicago Center
11:18PM 40.9225 -85.8333 106° East 402 463 37,000  Level Chicago Center
11:19PM 40.8836 -85.6644 107° East 403 464 37,000  Level Chicago Center
11:20PM 40.8525 -85.5225 106° East 405 466 37,000  Level Chicago Center
11:21PM 40.8200 -85.3819 107° East 405 466 37,000  Level Chicago Center
11:22PM 40.7881 -85.2339 106° East 417 480 37,000  Level Chicago Center
11:23PM 40.7553 -85.0911 107° East 415 478 37,000  Level Chicago Center
11:24PM 40.7228 -84.9483 107° East 410 472 37,000  Level Chicago Center
11:25PM 40.6897 -84.8067 107° East 408 470 37,000  Level Chicago Center
11:26PM 40.6572 -84.6653 107° East 407 468 37,000  Level Chicago Center
11:27PM 40.6236 -84.5233 107° East 407 468 37,000  Level Chicago Center
11:28PM 40.6047 -84.4422 107° East 407 468 37,000  Level Indianapolis Center
11:29PM 40.5719 -84.2978 107° East 410 472 37,000  Level Indianapolis Center
11:30PM 40.5364 -84.1550 108° East 407 468 37,000  Level Indianapolis Center
11:31PM 40.5031 -84.0111 107° East 408 470 37,000  Level Indianapolis Center
11:32PM 40.4686 -83.8706 108° East 402 463 37,000  Level Indianapolis Center
11:33PM 40.4347 -83.7292 107° East 402 463 37,000 -49 Level Indianapolis Center
11:34PM 40.4017 -83.5894 107° East 397 457 36,900 -49 Descending Indianapolis Center
11:35PM 40.3669 -83.4506 108° East 396 456 36,900 49 Level Indianapolis Center
11:36PM 40.3331 -83.3103 108° East 398 458 37,000 49 Climbing Indianapolis Center
11:37PM 40.2992 -83.1717 108° East 395 455 37,000  Level Indianapolis Center
11:38PM 40.2811 -83.0269 99° East 399 459 37,000 -49 Level Indianapolis Center
11:39PM 40.2633 -82.8828 99° East 397 457 36,900  Descending Indianapolis Center
11:40PM 40.2436 -82.7372 100° East 400 460 37,000 49 Climbing Indianapolis Center
11:41PM 40.2253 -82.5939 99° East 397 457 37,000  Level Indianapolis Center
11:42PM 40.2067 -82.4489 99° East 400 460 37,000  Level Indianapolis Center
11:43PM 40.1867 -82.3061 100° East 397 457 37,000  Level Indianapolis Center
11:44PM 40.1683 -82.1639 100° East 394 453 37,000 -49 Level Indianapolis Center
11:45PM 40.1489 -82.0228 100° East 391 450 36,900  Descending Indianapolis Center
11:46PM 40.1289 -81.8819 100° East 391 450 37,000 49 Climbing Indianapolis Center
11:47PM 40.1100 -81.7383 100° East 390 449 37,000  Level Indianapolis Center
11:48PM 40.0903 -81.5983 100° East 391 450 37,000  Level Indianapolis Center
11:49PM 40.0694 -81.4556 101° East 396 456 37,000  Level Indianapolis Center
11:50PM 40.0450 -81.3144 103° East 398 458 37,000  Level Indianapolis Center
11:51PM 40.0194 -81.1711 103° East 401 461 37,000  Level Indianapolis Center
11:52PM 40.0058 -81.0600 99° East 393 452 37,000  Level Cleveland Center
11:53PM 39.9792 -80.9244 104° East 393 452 37,000  Level Cleveland Center
11:54PM 39.9544 -80.7781 102° East 398 458 37,000  Level Cleveland Center
11:55PM 39.9294 -80.6344 103° East 398 458 37,000  Level Cleveland Center
11:56PM 39.9025 -80.4964 104° East 398 458 37,000  Level Cleveland Center
11:57PM 39.8772 -80.3531 103° East 398 458 37,000  Level Cleveland Center
11:58PM 39.8367 -80.1314 103° East 389 448 37,000  Level Washington Center
11:59PM 39.8106 -79.9892 103° East 394 453 37,000  Level Washington Center
12:00AM 39.7803 -79.8442 105° East 404 465 37,000  Level Washington Center
12:01AM 39.7542 -79.7022 103° East 404 465 37,000  Level Washington Center
12:02AM 39.7275 -79.5606 104° East 404 465 37,000  Level Washington Center
12:03AM 39.7008 -79.4186 104° East 404 465 37,000  Level Washington Center
12:04AM 39.6742 -79.2744 103° East 404 465 37,000  Level Washington Center
12:05AM 39.6431 -79.1272 105° East 404 465 37,000  Level Washington Center
12:06AM 39.6181 -78.9858 103° East 404 465 37,000 -2,723 Level Washington Center
12:07AM 39.5847 -78.8308 106° East 404 465 31,600 -4,250 Descending Washington Center
12:08AM 39.5569 -78.6950 105° East 398 458 28,500 -2,746 Descending Washington Center
12:09AM 39.5311 -78.5619 104° East 392 451 26,200 -2,200 Descending Washington Center
12:10AM 39.5053 -78.4344 105° East 374 430 24,100 -2,083 Descending Washington Center
12:11AM 39.4808 -78.3100 104° East 363 418 22,000 -2,050 Descending Washington Center
12:12AM 39.4544 -78.1906 106° East 355 409 20,000 -2,000 Descending Washington Center
12:13AM 39.4319 -78.0744 104° East 345 397 18,000 -1,918 Descending Washington Center
12:14AM 39.4072 -77.9553 105° East 340 391 16,100 -1,563 Descending Washington Center
12:15AM 39.3864 -77.8444 104° East 334 384 14,900 -610 Descending Washington Center
12:16AM 39.3986 -77.7400 81° East 297 342 14,900 -400 Level Washington Center
12:17AM 39.3878 -77.6431 98° East 285 328 14,100 -1,059 Descending Washington Center
12:18AM 39.3667 -77.5833 115° Southeast 264 304 13,100 -1,313 Descending Potomac TRACON
12:19AM 39.3500 -77.5000 104° East 241 277 12,000 -1,105 Descending Potomac TRACON
12:20AM 39.3333 -77.4333 108° East 216 249 11,000 -1,050 Descending Potomac TRACON
12:21AM 39.3167 -77.3667 108° East 213 245 9,900 -1,050 Descending Potomac TRACON
12:22AM 39.3000 -77.2833 104° East 212 244 8,900 -1,000 Descending Potomac TRACON
12:23AM 39.2667 -77.2167 123° Southeast 207 238 7,900 -1,000 Descending Potomac TRACON
12:24AM 39.2500 -77.1500 108° East 200 230 6,900 -1,050 Descending Potomac TRACON
12:25AM 39.2333 -77.0833 108° East 202 232 5,800 -1,100 Descending Potomac TRACON
12:26AM 39.2167 -77.0167 108° East 209 241 4,700 -1,050 Descending Potomac TRACON
12:27AM 39.2000 -76.9500 108° East 212 244 3,700 -850 Descending Potomac TRACON
12:28AM 39.1833 -76.8833 108° East 192 221 3,000 -850 Descending Potomac TRACON
12:29AM 39.1833 -76.8167 90° East 183 211 2,000 -900 Descending Potomac TRACON
12:30AM 39.1833 -76.7500 90° East 142 163 1,200 -800 Descending Potomac TRACON